Contact Us:
Email: info@sawbill.com
Phone: (218)663-7150
Fax: (218)663-7980
Mail: 4620 Sawbill Trail
Box 2129
Tofte, MN 55615


Powered by
Movable Type 3.15
 
Sawbill Weather History Archives: August 2015
Current Sawbill Weather History | « July 2015 | September 2015 »


Date

High
Temperature

Low
Temperature

Barometric
Pressure

Relative
Humidity 7AM

9 AM
Temperature

Moisture

Snow

8/31/15 75 61 30.00 88% 67 0
8/30/15 79 56 29.98 93% 61 0
8/29/15 70 56 30.00 88% 56 0
8/28/15 71 53 30.02 98% 59 .6"
8/27/15 69 42 30.00 75% 53 0
8/26/15 66 42 30.12 74% 42 0
8/25/15 56 45 30.12 94% 48 .02"
8/24/15 51 46 30.00 98% 48 .09"
8/23/15 58 46 29.78 92% 46 .29"
8/22/15 72 54 29.76 91% 55 .4"
8/21/15 69 42 29.94 84% 54 0
8/20/15 56 42 29.92 82% 42 .09"
8/19/15 57 49 29.76 98% 49 .63"
8/18/15 68 52 29.76 98% 54 1.25"
8/17/15 70 52 30.04 70% 53 0
8/16/15 81 59 30.02 74% 60 0
8/15/15 85 58 29.98 85% 69 .02"
8/14/15 83 58 30.10 73% 58 0
8/13/15 81 64 30.04 87% 65 0
8/12/15 82 58 29.96 87% 65 .09"
8/11/15 70 54 30.10 94% 58 .07"
8/10/15 71 56 30.10 88% 56 .21"
8/9/15 73 55 30.00 83% 56 .1"
8/8/15 71 60 30.00 98% 63 .1"
8/7/15 61 58 30.02 98% 60 .02"
8/6/15 69 50 29.94 98% 59 .38"
8/5/15 70 50 30.02 72% 50 0
8/4/15 63 47 30.08 83% 51 .02"
8/3/15 65 54 29.98 88% 55 .13"
8/2/15 70 57 29.84 64% 58 0
8/1/15 75 56 29.80 88% 60 .11"
 


Home I Trip Planning I Rentals and Outfitting I Reservations I Campgrounds I Sawbill Store I Sawbill News I Contact

© 1997 - 2017, Sawbill Canoe Outfitters, Inc. I Privacy Policy